铱星星座 165星 (IRIDIUM 165)

导读 | 星芒AI

IRIDIUM 165 是美国 Iridium 公司运营的一颗低轨通信卫星,属于 Iridium NEXT 卫星星座的一部分。该星座由 66 颗工作卫星组成,提供全球范围的移动语音和数据通信服务。IRIDIUM 165 于 2017 年发射,运行在约 780 公里的近极地轨道上,支持航空、航海、政府和应急通信等应用。卫星采用先进设计,具备抗干扰能力和高可靠性,为偏远地区和移动用户提供稳定的通信连接。

基本信息
目录编号:
43572
目录名称:
IRIDIUM 165
国际标识:
2018-061D
轨道中心:
EARTH
卫星名称:
铱星星座 165星
卫星全名:
铱星星座 165星 (IRIDIUM 165)
卫星状态:
在轨 (已飞行2698 天)
发射日期:
2018-07-25 UTC
国别 :
美国 (US)
星等 :
--
轨道信息
数据来源 国际轨道数据
星历时间: 2025-12-13T04:48:46+0800
13小时前
查看轨道信息
半长轴: 7155.798km
偏心率: 0.0002125
轨道倾角: 86.397°
近地点辐角 91.951°
升交点赤经 134.704°
平近点角 268.192°
近地点: 776.142km
远地点: 779.184km
周期: 100.403分钟
每日圈数: 14.342197
详细信息
平衡模式:
三轴稳定
覆盖范围:
全球
运营商:
铱星通信公司
运营商所在国:
美国
制造商(研发单位):
阿莱尼亚宇航公司
制造商所在国:
意大利
使用方式:
暂无
卫星简介
铱星(Iridium)是由共66个运作中的通信卫星组成的卫星通信系统。这个系统原本规划77个通信卫星,所以用原子序数为77的铱元素来命名。铱卫星允许人们使用手持型电子设备进行全球性的语音及数据通讯。该卫星仍在工作。
2D轨道图
3D轨道图
轨道高度分析图
轨道倾角分析图
轨道综合分析图
查看轨道综合分析图